Location: Warszawa
(52.2500°N, 21.0000°E)
Time: 18:02:12
(UTC+01:00)

deb Explorer IX - All Passes

Search period start: 30 January 2023 00:00
Search period end: 09 February 2023 00:00
Orbit: 534 x 1049 km, 38.8° (Epoch: 29 January)

Date Brightness Start Highest point End Pass type
(mag) Time Alt. Az. Time Alt. Az. Time Alt. Az.
30 Jan - 06:40:34 10° SSW 06:42:13 12° S 06:43:53 10° SSE visible
30 Jan - 08:25:39 10° SSW 08:27:12 12° S 08:28:47 10° SSE daylight
31 Jan - 06:08:22 10° SSW 06:09:50 12° S 06:11:17 10° SSE visible
31 Jan - 07:53:18 10° SSW 07:54:47 12° S 07:56:18 10° SSE daylight
01 Feb - 05:36:09 10° S 05:37:25 11° S 05:38:41 10° SSE visible
01 Feb - 07:20:55 10° SSW 07:22:23 12° S 07:23:51 10° SSE daylight
02 Feb - 05:03:52 10° S 05:05:00 11° S 05:06:06 10° SSE visible
02 Feb - 06:48:27 10° SSW 06:49:56 12° S 06:51:27 10° SSE daylight
03 Feb - 04:31:32 10° S 04:32:32 11° S 04:33:31 10° SSE visible
03 Feb - 06:15:57 10° SSW 06:17:30 12° S 06:19:03 10° SSE visible
04 Feb - 03:59:09 10° S 04:00:04 11° SSE 04:00:59 10° SSE visible
04 Feb - 05:43:22 10° SSW 05:45:01 12° S 05:46:40 10° SSE visible
05 Feb - 03:26:40 10° S 03:27:34 11° SSE 03:28:27 10° SSE visible
05 Feb - 05:10:45 10° SSW 05:12:32 12° S 05:14:18 10° SSE visible
06 Feb - 02:54:07 10° S 02:55:03 11° SSE 02:55:58 10° SSE visible
06 Feb - 04:38:05 10° SSW 04:40:02 13° S 04:41:56 10° SSE visible
07 Feb - 02:21:31 10° S 02:22:30 11° SSE 02:23:28 10° SSE night (unlit)
07 Feb - 04:05:22 10° SSW 04:07:30 13° S 04:09:34 10° SSE visible
08 Feb - 01:48:51 10° S 01:49:56 11° SSE 01:50:59 10° SSE night (unlit)
08 Feb - 03:32:35 10° SSW 03:34:57 14° S 03:37:11 10° SSE visible
